Simultaneous Nadir Overpasses (SNOs) Predictions

Prediction of SNOs between METOP-B and NOAA-19 Satellite Orbit:

Table of predicted SNOs for the next 14.0 days since TLE Epoch: 8/30/2013
Index Date (METOP-B) Time (METOP-B) Lat,Lon (METOP-B) SZA (METOP-B ) Date (NOAA-19) Time (NOAA-19) Lat,Lon (NOAA-19) SZA (NOAA-19 ) Distance(km) Time Diff (sec)
1 09/02/2013 10:25:48 73.56, 17.55 65.79 09/02/2013 10:24:34 73.55, 17.17 65.80 12.20 74
2 09/02/2013 11:16:32 -73.47,-175.34 114.28 09/02/2013 11:15:30 -73.48,-175.42 114.26 2.66 62
3 09/02/2013 12:07:12 73.44, -8.07 65.71 09/02/2013 12:06:36 73.43, -8.07 65.70 1.69 36
4 09/02/2013 12:57:54 -73.40, 159.16 114.32 09/02/2013 12:57:32 -73.41, 159.23 114.31 2.23 22
5 09/02/2013 13:48:33 73.42, -33.45 65.71 09/02/2013 13:48:39 73.41, -33.55 65.70 3.31 6
6 09/02/2013 14:39:16 -73.38, 133.78 114.32 09/02/2013 14:39:36 -73.39, 133.75 114.31 1.48 20
7 09/02/2013 15:29:56 73.35, -58.95 65.67 09/02/2013 15:30:42 73.34, -58.90 65.65 2.08 46
8 09/02/2013 16:20:38 -73.36, 108.39 114.31 09/02/2013 16:21:40 -73.37, 108.28 114.30 3.84 62
9 09/02/2013 17:11:28 72.83, -85.43 65.22 09/02/2013 17:12:36 72.82, -83.27 65.13 70.87 68
10 09/12/2013 12:00:07 73.68, -5.79 69.64 09/12/2013 11:58:55 73.69, -6.70 69.69 28.50 72
11 09/12/2013 12:50:53 -73.48, 161.08 110.54 09/12/2013 12:49:47 -73.49, 161.05 110.51 1.66 66
12 09/12/2013 13:41:33 73.46, -31.63 69.46 09/12/2013 13:40:54 73.43, -31.59 69.44 3.31 39
13 09/12/2013 14:32:15 -73.46, 135.69 110.53 09/12/2013 14:31:50 -73.42, 135.69 110.56 3.68 25
14 09/12/2013 15:22:55 73.44, -57.02 69.47 09/12/2013 15:22:58 73.41, -57.06 69.45 2.90 3
15 09/12/2013 16:13:38 -73.39, 110.19 110.57 09/12/2013 16:13:54 -73.41, 110.22 110.55 2.38 16
16 09/12/2013 17:04:18 73.36, -82.52 69.43 09/12/2013 17:05:02 73.39, -82.54 69.45 3.28 44
17 09/12/2013 17:55:00 -73.37, 84.80 110.56 09/12/2013 17:55:58 -73.39, 84.74 110.54 3.20 58
18 09/12/2013 18:45:48 72.94,-108.79 69.06 09/12/2013 18:46:58 72.98,-107.12 69.04 54.66 70




NCC Satellite Simultaneous Nadir Overpasses (
